OCN2B EDDF-LDDU

Flight info

Callsign OCN2B
Flight time 1h 25m
Altitude 39000
Route CINDY2D CINDY Z74 LAMPU DCT NOMBO Y161 MAH DCT VAVOR DCT RADIZ DCT SABAD DCT SIPAL
Aircraft A320/M-SDE2E3FGIJ1LORWXYZ/HB1

Departure

Time 2026-04-18 03:51
Airport Frankfurt Main Airport (EDDF)

Arrival

Time 2026-04-18 05:17
Airport Dubrovnik Ruđer Bošković Airport (LDDU)
Time Latitude Longitude Altitude Speed Heading
2026-04-18 03:36 50.04707 8.56835 356 ft 0 kts 294°
2026-04-18 03:41 50.04701 8.56856 363 ft 4 kts 293°
2026-04-18 03:41 50.04690 8.56894 356 ft 4 kts 295°
2026-04-18 03:41 50.04681 8.56931 356 ft 4 kts 264°
2026-04-18 03:42 50.04692 8.56961 361 ft 4 kts 208°
2026-04-18 03:42 50.04698 8.56966 356 ft 2 kts 204°
2026-04-18 03:42 50.04674 8.56949 356 ft 4 kts 204°
2026-04-18 03:42 50.04650 8.56932 356 ft 3 kts 204°
2026-04-18 03:43 50.04647 8.56930 356 ft 0 kts 204°
2026-04-18 03:45 50.04640 8.56925 362 ft 6 kts 200°
2026-04-18 03:45 50.04575 8.56899 358 ft 7 kts 193°
2026-04-18 03:46 50.04536 8.56885 359 ft 8 kts 193°
2026-04-18 03:46 50.04475 8.56859 362 ft 9 kts 204°
2026-04-18 03:46 50.04434 8.56755 364 ft 17 kts 250°
2026-04-18 03:46 50.04384 8.56540 360 ft 26 kts 250°
2026-04-18 03:47 50.04314 8.56253 356 ft 30 kts 249°
2026-04-18 03:47 50.04245 8.55961 356 ft 27 kts 249°
2026-04-18 03:47 50.04175 8.55669 356 ft 30 kts 250°
2026-04-18 03:47 50.04104 8.55369 357 ft 29 kts 250°
2026-04-18 03:48 50.04034 8.55079 360 ft 30 kts 249°
2026-04-18 03:48 50.03965 8.54794 357 ft 29 kts 250°
2026-04-18 03:48 50.03890 8.54484 353 ft 30 kts 248°
2026-04-18 03:48 50.03804 8.54237 346 ft 27 kts 245°
2026-04-18 03:49 50.03733 8.53951 352 ft 30 kts 249°
2026-04-18 03:49 50.03659 8.53638 351 ft 30 kts 246°
2026-04-18 03:49 50.03584 8.53337 335 ft 29 kts 249°
2026-04-18 03:49 50.03515 8.53049 336 ft 28 kts 249°
2026-04-18 03:50 50.03448 8.52788 333 ft 16 kts 248°
2026-04-18 03:50 50.03408 8.52634 332 ft 11 kts 247°
2026-04-18 03:50 50.03347 8.52593 336 ft 10 kts 179°
2026-04-18 03:50 50.03123 8.52597 336 ft 72 kts 179°
2026-04-18 03:51 50.02353 8.52605 335 ft 145 kts 179°
2026-04-18 03:51 50.01241 8.52616 878 ft 162 kts 179°
2026-04-18 03:51 50.00099 8.52607 1749 ft 169 kts 179°
2026-04-18 03:51 49.98853 8.52598 2341 ft 189 kts 179°
2026-04-18 03:52 49.97470 8.52734 2894 ft 212 kts 162°
2026-04-18 03:52 49.96209 8.54011 3727 ft 224 kts 131°
2026-04-18 03:52 49.95354 8.56084 4705 ft 233 kts 121°
2026-04-18 03:52 49.94554 8.58308 5706 ft 239 kts 119°
2026-04-18 03:53 49.94023 8.60786 6657 ft 252 kts 98°
2026-04-18 03:53 49.93896 8.63638 7282 ft 276 kts 94°
2026-04-18 03:53 49.93699 8.66646 8202 ft 285 kts 104°
2026-04-18 03:53 49.92956 8.69512 9238 ft 290 kts 123°
2026-04-18 03:54 49.91668 8.71858 10264 ft 291 kts 142°
2026-04-18 03:54 49.89999 8.73791 10863 ft 311 kts 143°
2026-04-18 03:54 49.88401 8.76185 11559 ft 327 kts 131°
2026-04-18 03:54 49.87109 8.79149 12430 ft 336 kts 121°
2026-04-18 03:55 49.85949 8.82332 13375 ft 343 kts 120°
2026-04-18 03:55 49.84773 8.85583 14240 ft 349 kts 120°
2026-04-18 03:55 49.83578 8.88896 15059 ft 355 kts 120°
2026-04-18 03:55 49.82366 8.92248 15887 ft 359 kts 120°
2026-04-18 03:56 49.81134 8.95643 16703 ft 363 kts 120°
2026-04-18 03:56 49.79884 8.99075 17499 ft 369 kts 121°
2026-04-18 03:56 49.78616 9.02554 18325 ft 373 kts 121°
2026-04-18 03:56 49.77330 9.06078 19045 ft 378 kts 121°
2026-04-18 03:57 49.75471 9.13751 20440 ft 388 kts 105°
2026-04-18 03:57 49.74566 9.17688 21126 ft 391 kts 116°
2026-04-18 03:57 49.73184 9.21318 21807 ft 393 kts 128°
2026-04-18 03:58 49.71418 9.24557 22499 ft 396 kts 133°
2026-04-18 03:58 49.69578 9.27759 23172 ft 400 kts 133°
2026-04-18 03:58 49.67729 9.31000 23813 ft 404 kts 133°
2026-04-18 03:58 49.65868 9.34278 24356 ft 408 kts 133°
2026-04-18 03:59 49.63993 9.37593 24931 ft 411 kts 133°
2026-04-18 03:59 49.62000 9.40771 25446 ft 413 kts 141°
2026-04-18 03:59 49.59703 9.43406 25979 ft 413 kts 151°
2026-04-18 03:59 49.57233 9.45680 26505 ft 415 kts 152°
2026-04-18 04:00 49.54739 9.47958 27007 ft 418 kts 152°
2026-04-18 04:00 49.52223 9.50252 27491 ft 422 kts 152°
2026-04-18 04:00 49.49660 9.52583 27677 ft 434 kts 152°
2026-04-18 04:00 49.47024 9.54978 27821 ft 446 kts 152°
2026-04-18 04:01 49.44320 9.57428 27956 ft 456 kts 152°
2026-04-18 04:01 49.41565 9.59926 28241 ft 462 kts 152°
2026-04-18 04:01 49.38785 9.62448 28618 ft 466 kts 152°
2026-04-18 04:01 49.35988 9.65003 29022 ft 469 kts 150°
2026-04-18 04:02 49.33336 9.67964 29408 ft 475 kts 141°
2026-04-18 04:02 49.30940 9.71490 29813 ft 479 kts 136°
2026-04-18 04:02 49.28590 9.75125 30202 ft 482 kts 137°
2026-04-18 04:02 49.26220 9.78759 30620 ft 481 kts 137°
2026-04-18 04:03 49.23850 9.82366 31103 ft 480 kts 137°
2026-04-18 04:03 49.21483 9.85949 31558 ft 479 kts 137°
2026-04-18 04:03 49.19114 9.89523 32028 ft 477 kts 137°
2026-04-18 04:03 49.16756 9.93088 32505 ft 476 kts 137°
2026-04-18 04:04 49.14405 9.96642 32967 ft 475 kts 137°
2026-04-18 04:04 49.12091 10.00135 33415 ft 474 kts 137°
2026-04-18 04:04 49.09746 10.03668 33890 ft 473 kts 137°
2026-04-18 04:04 49.07413 10.07187 34326 ft 472 kts 137°
2026-04-18 04:05 49.05074 10.10691 34731 ft 471 kts 137°
2026-04-18 04:05 49.02702 10.14136 35081 ft 471 kts 138°
2026-04-18 04:05 49.00304 10.17525 35178 ft 470 kts 139°
2026-04-18 04:06 48.95469 10.24237 35212 ft 470 kts 139°
2026-04-18 04:06 48.90660 10.30955 35214 ft 470 kts 138°
2026-04-18 04:07 48.85872 10.37715 35217 ft 470 kts 138°
2026-04-18 04:07 48.81127 10.44528 35214 ft 470 kts 136°
2026-04-18 04:08 48.76609 10.51710 35207 ft 470 kts 133°
2026-04-18 04:08 48.72184 10.59026 35199 ft 471 kts 133°
2026-04-18 04:09 48.67756 10.66198 35194 ft 471 kts 134°
2026-04-18 04:09 48.63227 10.73384 35191 ft 472 kts 134°
2026-04-18 04:10 48.58680 10.80542 35190 ft 472 kts 134°
2026-04-18 04:10 48.54154 10.87727 35191 ft 472 kts 133°
2026-04-18 04:11 48.49682 10.94892 35202 ft 472 kts 133°
2026-04-18 04:11 48.45153 11.02070 35207 ft 473 kts 134°
2026-04-18 04:12 48.40574 11.09185 35213 ft 473 kts 134°
2026-04-18 04:12 48.36238 11.15896 35213 ft 473 kts 134°
2026-04-18 04:13 48.31644 11.22987 35205 ft 473 kts 133°
2026-04-18 04:13 48.27171 11.30057 35207 ft 473 kts 128°
2026-04-18 04:14 48.23615 11.38303 35208 ft 470 kts 118°
2026-04-18 04:14 48.20387 11.46669 35206 ft 470 kts 118°
2026-04-18 04:15 48.17091 11.55139 35205 ft 470 kts 118°
2026-04-18 04:15 48.13798 11.63604 35213 ft 470 kts 118°
2026-04-18 04:16 48.10501 11.72064 35212 ft 471 kts 118°
2026-04-18 04:16 48.07196 11.80523 35212 ft 471 kts 118°
2026-04-18 04:17 48.03883 11.88977 35209 ft 472 kts 118°
2026-04-18 04:17 48.00557 11.97414 35231 ft 472 kts 118°
2026-04-18 04:18 47.97221 12.05840 35229 ft 471 kts 118°
2026-04-18 04:18 47.93729 12.14114 35223 ft 473 kts 126°
2026-04-18 04:19 47.89025 12.20995 35224 ft 476 kts 138°
2026-04-18 04:19 47.83950 12.27323 35221 ft 476 kts 138°
2026-04-18 04:20 47.78872 12.33668 35221 ft 476 kts 138°
2026-04-18 04:20 47.73795 12.39993 35211 ft 476 kts 138°
2026-04-18 04:21 47.68722 12.46312 35217 ft 476 kts 138°
2026-04-18 04:21 47.63643 12.52616 35220 ft 476 kts 138°
2026-04-18 04:22 47.58477 12.58769 35215 ft 476 kts 141°
2026-04-18 04:22 47.53211 12.64642 35219 ft 478 kts 141°
2026-04-18 04:23 47.47843 12.70568 35211 ft 479 kts 141°
2026-04-18 04:23 47.42572 12.76464 35210 ft 479 kts 141°
2026-04-18 04:24 47.37268 12.82430 35214 ft 480 kts 141°
2026-04-18 04:24 47.31959 12.88397 35212 ft 480 kts 141°
2026-04-18 04:25 47.26644 12.94335 35224 ft 480 kts 141°
2026-04-18 04:25 47.21314 13.00268 35218 ft 481 kts 141°
2026-04-18 04:26 47.15977 13.06194 35215 ft 481 kts 141°
2026-04-18 04:26 47.10633 13.12110 35208 ft 481 kts 141°
2026-04-18 04:27 47.05288 13.18018 35208 ft 481 kts 141°
2026-04-18 04:27 46.99938 13.23906 35216 ft 481 kts 140°
2026-04-18 04:28 46.94578 13.29799 35203 ft 482 kts 140°
2026-04-18 04:28 46.89210 13.35685 35203 ft 483 kts 141°
2026-04-18 04:29 46.83832 13.41562 35194 ft 483 kts 141°
2026-04-18 04:29 46.78442 13.47432 35199 ft 484 kts 141°
2026-04-18 04:30 46.73051 13.53301 35210 ft 483 kts 140°
2026-04-18 04:30 46.67656 13.59163 35206 ft 484 kts 140°
2026-04-18 04:31 46.62252 13.65014 35199 ft 484 kts 141°
2026-04-18 04:31 46.57758 13.69863 35201 ft 484 kts 141°
2026-04-18 04:32 46.52339 13.75697 35199 ft 484 kts 141°
2026-04-18 04:32 46.46923 13.81507 35228 ft 484 kts 140°
2026-04-18 04:33 46.41505 13.87323 35205 ft 485 kts 140°
2026-04-18 04:33 46.36079 13.93129 35188 ft 486 kts 140°
2026-04-18 04:34 46.30643 13.98938 35187 ft 486 kts 140°
2026-04-18 04:34 46.25199 14.04729 35184 ft 486 kts 141°
2026-04-18 04:35 46.19759 14.10507 35196 ft 485 kts 140°
2026-04-18 04:35 46.14306 14.16269 35177 ft 486 kts 141°
2026-04-18 04:36 46.08842 14.22031 35177 ft 487 kts 141°
2026-04-18 04:36 46.03371 14.27783 35173 ft 487 kts 141°
2026-04-18 04:37 45.97899 14.33529 35177 ft 487 kts 141°
2026-04-18 04:37 45.92427 14.39268 35189 ft 487 kts 141°
2026-04-18 04:38 45.86950 14.45009 35180 ft 488 kts 141°
2026-04-18 04:38 45.81457 14.50735 35175 ft 489 kts 141°
2026-04-18 04:39 45.75988 14.56412 35176 ft 489 kts 141°
2026-04-18 04:39 45.70470 14.62121 35176 ft 490 kts 141°
2026-04-18 04:40 45.64951 14.67839 35188 ft 490 kts 141°
2026-04-18 04:40 45.59428 14.73552 35164 ft 490 kts 141°
2026-04-18 04:41 45.53902 14.79252 35173 ft 490 kts 141°
2026-04-18 04:41 45.48369 14.84930 35172 ft 490 kts 141°
2026-04-18 04:42 45.42812 14.90559 35189 ft 490 kts 141°
2026-04-18 04:42 45.37206 14.96098 35164 ft 491 kts 142°
2026-04-18 04:43 45.31594 15.01617 35174 ft 490 kts 142°
2026-04-18 04:43 45.25990 15.07131 35174 ft 490 kts 142°
2026-04-18 04:44 45.20396 15.12643 35173 ft 490 kts 142°
2026-04-18 04:44 45.14793 15.18161 35163 ft 490 kts 142°
2026-04-18 04:45 45.09194 15.23650 35181 ft 489 kts 142°
2026-04-18 04:45 45.03594 15.29116 35184 ft 488 kts 142°
2026-04-18 04:46 44.98006 15.34566 35189 ft 488 kts 142°
2026-04-18 04:46 44.92416 15.40008 35183 ft 488 kts 142°
2026-04-18 04:47 44.86832 15.45443 35176 ft 488 kts 142°
2026-04-18 04:47 44.81233 15.50871 35166 ft 489 kts 142°
2026-04-18 04:48 44.75621 15.56286 35172 ft 489 kts 142°
2026-04-18 04:48 44.70002 15.61692 35168 ft 490 kts 142°
2026-04-18 04:49 44.64381 15.67107 35181 ft 490 kts 142°
2026-04-18 04:49 44.58752 15.72504 35158 ft 490 kts 143°
2026-04-18 04:50 44.53117 15.77878 35160 ft 490 kts 143°
2026-04-18 04:50 44.47479 15.83259 35147 ft 491 kts 143°
2026-04-18 04:51 44.41872 15.88603 35132 ft 490 kts 143°
2026-04-18 04:51 44.36227 15.93967 35156 ft 491 kts 143°
2026-04-18 04:52 44.30570 15.99318 35136 ft 491 kts 143°
2026-04-18 04:52 44.24914 16.04665 35129 ft 491 kts 143°
2026-04-18 04:53 44.19252 16.10003 35119 ft 491 kts 143°
2026-04-18 04:53 44.13600 16.15327 35139 ft 491 kts 143°
2026-04-18 04:54 44.07941 16.20646 35124 ft 491 kts 143°
2026-04-18 04:54 44.02276 16.25944 35101 ft 491 kts 144°
2026-04-18 04:55 43.96610 16.31236 35096 ft 490 kts 144°
2026-04-18 04:55 43.90951 16.36516 35099 ft 490 kts 144°
2026-04-18 04:56 43.82461 16.44420 35100 ft 490 kts 144°
2026-04-18 04:56 43.76794 16.49675 35075 ft 490 kts 144°
2026-04-18 04:57 43.71129 16.54907 35076 ft 490 kts 144°
2026-04-18 04:57 43.65458 16.60125 35078 ft 490 kts 144°
2026-04-18 04:58 43.59786 16.65337 35081 ft 490 kts 144°
2026-04-18 04:58 43.54119 16.70549 35097 ft 490 kts 144°
2026-04-18 04:59 43.48444 16.75749 35077 ft 490 kts 144°
2026-04-18 04:59 43.42765 16.80952 35059 ft 491 kts 144°
2026-04-18 05:00 43.37076 16.86145 34395 ft 492 kts 144°
2026-04-18 05:00 43.34199 16.88762 33150 ft 499 kts 145°
2026-04-18 05:00 43.31296 16.91399 31983 ft 503 kts 145°
2026-04-18 05:01 43.28368 16.94062 30818 ft 506 kts 145°
2026-04-18 05:01 43.25421 16.96738 29551 ft 510 kts 145°
2026-04-18 05:01 43.22452 16.99428 28135 ft 513 kts 145°
2026-04-18 05:01 43.19467 17.02128 26711 ft 516 kts 145°
2026-04-18 05:02 43.16483 17.04855 25552 ft 513 kts 142°
2026-04-18 05:02 43.13783 17.08009 24391 ft 508 kts 131°
2026-04-18 05:02 43.11543 17.11698 23331 ft 499 kts 122°
2026-04-18 05:02 43.09627 17.15612 22266 ft 492 kts 120°
2026-04-18 05:03 43.07736 17.19467 21304 ft 484 kts 121°
2026-04-18 05:03 43.05872 17.23253 20483 ft 475 kts 121°
2026-04-18 05:03 43.04052 17.26938 19874 ft 462 kts 121°
2026-04-18 05:03 43.02255 17.30575 18962 ft 457 kts 121°
2026-04-18 05:04 43.00536 17.34039 18515 ft 424 kts 121°
2026-04-18 05:04 42.98954 17.37218 17852 ft 400 kts 121°
2026-04-18 05:04 42.97419 17.40323 16860 ft 390 kts 120°
2026-04-18 05:04 42.95923 17.43372 15801 ft 384 kts 120°
2026-04-18 05:05 42.94452 17.46374 14793 ft 377 kts 121°
2026-04-18 05:05 42.93001 17.49323 13808 ft 371 kts 121°
2026-04-18 05:05 42.91569 17.52215 12760 ft 363 kts 121°
2026-04-18 05:05 42.90057 17.54950 12183 ft 359 kts 130°
2026-04-18 05:06 42.88320 17.57368 11700 ft 355 kts 132°
2026-04-18 05:06 42.86598 17.59764 11173 ft 352 kts 132°
2026-04-18 05:06 42.84896 17.62144 10596 ft 348 kts 132°
2026-04-18 05:06 42.83217 17.64486 10208 ft 340 kts 133°
2026-04-18 05:07 42.81599 17.66735 10090 ft 325 kts 133°
2026-04-18 05:07 42.80053 17.68882 9962 ft 310 kts 132°
2026-04-18 05:07 42.78570 17.70945 9741 ft 301 kts 132°
2026-04-18 05:07 42.77256 17.73118 9267 ft 293 kts 120°
2026-04-18 05:08 42.76286 17.75520 8488 ft 288 kts 114°
2026-04-18 05:08 42.75361 17.77909 7737 ft 283 kts 115°
2026-04-18 05:08 42.74451 17.80254 7013 ft 277 kts 115°
2026-04-18 05:08 42.73561 17.82534 6314 ft 269 kts 115°
2026-04-18 05:09 42.72690 17.84757 5630 ft 264 kts 114°
2026-04-18 05:09 42.71840 17.86926 5172 ft 252 kts 114°
2026-04-18 05:09 42.71050 17.88929 5120 ft 229 kts 113°
2026-04-18 05:09 42.70331 17.90751 5088 ft 209 kts 112°
2026-04-18 05:10 42.69662 17.92453 4932 ft 202 kts 112°
2026-04-18 05:10 42.69010 17.94123 4674 ft 198 kts 111°
2026-04-18 05:10 42.68372 17.95758 4426 ft 194 kts 111°
2026-04-18 05:10 42.67741 17.97372 4186 ft 192 kts 111°
2026-04-18 05:11 42.67120 17.98962 3941 ft 189 kts 111°
2026-04-18 05:11 42.66513 18.00507 3830 ft 184 kts 110°
2026-04-18 05:11 42.65907 18.02051 3637 ft 186 kts 111°
2026-04-18 05:11 42.65301 18.03596 3439 ft 183 kts 111°
2026-04-18 05:12 42.64584 18.05421 3304 ft 182 kts 111°
2026-04-18 05:12 42.64188 18.06430 3215 ft 183 kts 111°
2026-04-18 05:12 42.63819 18.07373 3172 ft 184 kts 111°
2026-04-18 05:13 42.63218 18.08893 3089 ft 180 kts 111°
2026-04-18 05:13 42.62629 18.10391 2878 ft 181 kts 111°
2026-04-18 05:13 42.62034 18.11902 2648 ft 182 kts 111°
2026-04-18 05:13 42.61440 18.13409 2400 ft 182 kts 112°
2026-04-18 05:14 42.60850 18.14901 2169 ft 176 kts 112°
2026-04-18 05:14 42.60280 18.16343 1910 ft 169 kts 113°
2026-04-18 05:14 42.59737 18.17717 1695 ft 162 kts 113°
2026-04-18 05:14 42.59219 18.19027 1488 ft 152 kts 113°
2026-04-18 05:15 42.58739 18.20238 1308 ft 139 kts 112°
2026-04-18 05:15 42.58294 18.21361 1114 ft 133 kts 110°
2026-04-18 05:15 42.57860 18.22456 957 ft 130 kts 107°
2026-04-18 05:15 42.57436 18.23528 797 ft 129 kts 106°
2026-04-18 05:16 42.56997 18.24642 612 ft 138 kts 107°
2026-04-18 05:16 42.56700 18.25384 545 ft 128 kts 104°
2026-04-18 05:16 42.56331 18.26344 534 ft 91 kts 108°
2026-04-18 05:16 42.56120 18.26884 535 ft 54 kts 119°
2026-04-18 05:17 42.55970 18.27254 533 ft 29 kts 120°
2026-04-18 05:17 42.55839 18.27336 533 ft 13 kts 169°
2026-04-18 05:17 42.55776 18.27302 534 ft 11 kts 258°
2026-04-18 05:17 42.55799 18.27207 534 ft 10 kts 297°
2026-04-18 05:18 42.55830 18.27124 534 ft 10 kts 297°
2026-04-18 05:18 42.55862 18.27043 535 ft 10 kts 298°
2026-04-18 05:18 42.55894 18.26962 534 ft 10 kts 298°
2026-04-18 05:18 42.55927 18.26879 534 ft 10 kts 298°
2026-04-18 05:19 42.55960 18.26796 534 ft 9 kts 298°
2026-04-18 05:19 42.55975 18.26762 534 ft 3 kts 300°
2026-04-18 05:19 42.55962 18.26721 534 ft 7 kts 216°
2026-04-18 05:19 42.55937 18.26704 534 ft 1 kts 208°
2026-04-18 05:20 42.55936 18.26704 534 ft 0 kts 208°